Year,Month,Day,Hour,Minute,Value (Times are PST for temperature in C)
2012,06,04,00,00,7.00
2012,06,04,00,01,6.90
2012,06,04,00,02,6.90
2012,06,04,00,03,6.90
2012,06,04,00,04,6.90
2012,06,04,00,05,6.90
2012,06,04,00,06,6.90
2012,06,04,00,07,6.90
2012,06,04,00,08,6.90
2012,06,04,00,09,6.90
2012,06,04,00,10,6.90
2012,06,04,00,11,6.90
2012,06,04,00,12,6.90
2012,06,04,00,13,6.80
2012,06,04,00,14,6.80
2012,06,04,00,15,6.80
2012,06,04,00,16,6.80
2012,06,04,00,17,6.80
2012,06,04,00,18,6.80
2012,06,04,00,19,6.80
2012,06,04,00,20,6.70
2012,06,04,00,21,6.70
2012,06,04,00,22,6.70
2012,06,04,00,23,6.70
2012,06,04,00,24,6.70
2012,06,04,00,25,6.70
2012,06,04,00,26,6.60
2012,06,04,00,27,6.60
2012,06,04,00,28,6.60
2012,06,04,00,29,6.60
2012,06,04,00,30,6.60
2012,06,04,00,31,6.60
2012,06,04,00,32,6.60
2012,06,04,00,33,6.60
2012,06,04,00,34,6.50
2012,06,04,00,35,6.50
2012,06,04,00,36,6.50
2012,06,04,00,37,6.50
2012,06,04,00,38,6.50
2012,06,04,00,39,6.40
2012,06,04,00,40,6.40
2012,06,04,00,41,6.40
2012,06,04,00,42,6.40
2012,06,04,00,43,6.40
2012,06,04,00,44,6.40
2012,06,04,00,45,6.40
2012,06,04,00,46,6.40
2012,06,04,00,47,6.40
2012,06,04,00,48,6.40
2012,06,04,00,49,6.40
2012,06,04,00,50,6.40
2012,06,04,00,51,6.40
2012,06,04,00,52,6.40
2012,06,04,00,53,6.40
2012,06,04,00,54,6.40
2012,06,04,00,55,6.40
2012,06,04,00,56,6.30
2012,06,04,00,57,6.30
2012,06,04,00,58,6.30
2012,06,04,00,59,6.30
2012,06,04,01,00,6.30
2012,06,04,01,01,6.30
2012,06,04,01,02,6.30
2012,06,04,01,03,6.30
2012,06,04,01,04,6.30
2012,06,04,01,05,6.30
2012,06,04,01,06,6.30
2012,06,04,01,07,6.30
2012,06,04,01,08,6.30
2012,06,04,01,09,6.30
2012,06,04,01,10,6.30
2012,06,04,01,11,6.30
2012,06,04,01,12,6.30
2012,06,04,01,13,6.30
2012,06,04,01,14,6.30
2012,06,04,01,15,6.30
2012,06,04,01,16,6.30
2012,06,04,01,17,6.30
2012,06,04,01,18,6.20
2012,06,04,01,19,6.20
2012,06,04,01,20,6.20
2012,06,04,01,21,6.20
2012,06,04,01,22,6.20
2012,06,04,01,23,6.20
2012,06,04,01,24,6.20
2012,06,04,01,25,6.20
2012,06,04,01,26,6.20
2012,06,04,01,27,6.20
2012,06,04,01,28,6.20
2012,06,04,01,29,6.20
2012,06,04,01,30,6.20
2012,06,04,01,31,6.20
2012,06,04,01,32,6.10
2012,06,04,01,33,6.10
2012,06,04,01,34,6.10
2012,06,04,01,35,6.10
2012,06,04,01,36,6.10
2012,06,04,01,37,6.10
2012,06,04,01,38,6.10
2012,06,04,01,39,6.10
2012,06,04,01,40,6.10
2012,06,04,01,41,6.10
2012,06,04,01,42,6.10
2012,06,04,01,43,6.10
2012,06,04,01,44,6.10
2012,06,04,01,45,6.10
2012,06,04,01,46,6.10
2012,06,04,01,47,6.10
2012,06,04,01,48,6.00
2012,06,04,01,49,6.00
2012,06,04,01,50,6.00
2012,06,04,01,51,6.00
2012,06,04,01,52,6.00
2012,06,04,01,53,6.00
2012,06,04,01,54,6.00
2012,06,04,01,55,6.00
2012,06,04,01,56,6.00
2012,06,04,01,57,6.00
2012,06,04,01,58,6.00
2012,06,04,01,59,6.00
2012,06,04,02,00,6.00
2012,06,04,02,01,6.00
2012,06,04,02,02,5.90
2012,06,04,02,03,5.90
2012,06,04,02,04,5.90
2012,06,04,02,05,5.90
2012,06,04,02,06,5.90
2012,06,04,02,07,5.90
2012,06,04,02,08,5.90
2012,06,04,02,09,5.90
2012,06,04,02,10,5.90
2012,06,04,02,11,5.90
2012,06,04,02,12,5.90
2012,06,04,02,13,5.90
2012,06,04,02,14,5.90
2012,06,04,02,15,5.80
2012,06,04,02,16,5.80
2012,06,04,02,17,5.80
2012,06,04,02,18,5.80
2012,06,04,02,19,5.80
2012,06,04,02,20,5.80
2012,06,04,02,21,5.80
2012,06,04,02,22,5.80
2012,06,04,02,23,5.80
2012,06,04,02,24,5.80
2012,06,04,02,25,5.80
2012,06,04,02,26,5.80
2012,06,04,02,27,5.80
2012,06,04,02,28,5.80
2012,06,04,02,29,5.80
2012,06,04,02,30,5.80
2012,06,04,02,31,5.80
2012,06,04,02,32,5.80
2012,06,04,02,33,5.80
2012,06,04,02,34,5.80
2012,06,04,02,35,5.80
2012,06,04,02,36,5.80
2012,06,04,02,37,5.80
2012,06,04,02,38,5.80
2012,06,04,02,39,5.80
2012,06,04,02,40,5.80
2012,06,04,02,41,5.80
2012,06,04,02,42,5.80
2012,06,04,02,43,5.80
2012,06,04,02,44,5.80
2012,06,04,02,45,5.80
2012,06,04,02,46,5.80
2012,06,04,02,47,5.80
2012,06,04,02,48,5.80
2012,06,04,02,49,5.80
2012,06,04,02,50,5.80
2012,06,04,02,51,5.80
2012,06,04,02,52,5.80
2012,06,04,02,53,5.80
2012,06,04,02,54,5.80
2012,06,04,02,55,5.80
2012,06,04,02,56,5.80
2012,06,04,02,57,5.80
2012,06,04,02,58,5.80
2012,06,04,02,59,5.80
2012,06,04,03,00,5.80
2012,06,04,03,01,5.80
2012,06,04,03,02,5.80
2012,06,04,03,06,5.80
2012,06,04,03,07,5.80
2012,06,04,03,08,5.80
2012,06,04,03,09,5.80
2012,06,04,03,10,5.80
2012,06,04,03,11,5.80
2012,06,04,03,12,5.80
2012,06,04,03,13,5.80
2012,06,04,03,14,5.80
2012,06,04,03,15,5.80
2012,06,04,03,16,5.80
2012,06,04,03,17,5.80
2012,06,04,03,18,5.80
2012,06,04,03,19,5.80
2012,06,04,03,20,5.80
2012,06,04,03,21,5.80
2012,06,04,03,22,5.80
2012,06,04,03,23,5.80
2012,06,04,03,24,5.80
2012,06,04,03,25,5.80
2012,06,04,03,26,5.80
2012,06,04,03,27,5.80
2012,06,04,03,28,5.80
2012,06,04,03,29,5.80
2012,06,04,03,30,5.80
2012,06,04,03,31,5.80
2012,06,04,03,32,5.80
2012,06,04,03,33,5.80
2012,06,04,03,34,5.80
2012,06,04,03,35,5.80
2012,06,04,03,36,5.80
2012,06,04,03,37,5.80
2012,06,04,03,38,5.80
2012,06,04,03,39,5.80
2012,06,04,03,40,5.80
2012,06,04,03,41,5.80
2012,06,04,03,42,5.80
2012,06,04,03,43,5.80
2012,06,04,03,44,5.80
2012,06,04,03,45,5.80
2012,06,04,03,46,5.80
2012,06,04,03,47,5.80
2012,06,04,03,48,5.80
2012,06,04,03,49,5.80
2012,06,04,03,50,5.80
2012,06,04,03,51,5.80
2012,06,04,03,52,5.80
2012,06,04,03,53,5.80
2012,06,04,03,54,5.80
2012,06,04,03,55,5.80
2012,06,04,03,56,5.80
2012,06,04,03,57,5.80
2012,06,04,03,58,5.80
2012,06,04,03,59,5.80
2012,06,04,04,00,5.80
2012,06,04,04,01,5.80
2012,06,04,04,02,5.80
2012,06,04,04,03,5.90
2012,06,04,04,04,5.90
2012,06,04,04,05,5.90
2012,06,04,04,06,5.90
2012,06,04,04,07,5.90
2012,06,04,04,08,5.90
2012,06,04,04,09,5.90
2012,06,04,04,10,5.90
2012,06,04,04,11,5.90
2012,06,04,04,12,5.90
2012,06,04,04,13,5.90
2012,06,04,04,14,5.90
2012,06,04,04,15,5.90
2012,06,04,04,16,5.90
2012,06,04,04,17,5.90
2012,06,04,04,18,5.90
2012,06,04,04,19,6.00
2012,06,04,04,20,6.00
2012,06,04,04,21,6.00
2012,06,04,04,22,6.00
2012,06,04,04,23,6.00
2012,06,04,04,24,6.00
2012,06,04,04,25,6.00
2012,06,04,04,26,6.00
2012,06,04,04,27,6.00
2012,06,04,04,28,6.00
2012,06,04,04,29,6.10
2012,06,04,04,30,6.10
2012,06,04,04,31,6.10
2012,06,04,04,32,6.10
2012,06,04,04,33,6.10
2012,06,04,04,34,6.10
2012,06,04,04,35,6.10
2012,06,04,04,36,6.10
2012,06,04,04,37,6.10
2012,06,04,04,38,6.10
2012,06,04,04,39,6.10
2012,06,04,04,40,6.10
2012,06,04,04,41,6.10
2012,06,04,04,42,6.10
2012,06,04,04,43,6.20
2012,06,04,04,44,6.20
2012,06,04,04,45,6.20
2012,06,04,04,46,6.20
2012,06,04,04,47,6.20
2012,06,04,04,48,6.20
2012,06,04,04,49,6.20
2012,06,04,04,50,6.20
2012,06,04,04,51,6.20
2012,06,04,04,52,6.20
2012,06,04,04,53,6.20
2012,06,04,04,54,6.20
2012,06,04,04,55,6.20
2012,06,04,04,56,6.20
2012,06,04,04,57,6.20
2012,06,04,04,58,6.30
2012,06,04,04,59,6.30
2012,06,04,05,00,6.30
2012,06,04,05,01,6.30
2012,06,04,05,02,6.30
2012,06,04,05,03,6.30
2012,06,04,05,04,6.30
2012,06,04,05,05,6.30
2012,06,04,05,06,6.30
2012,06,04,05,07,6.30
2012,06,04,05,08,6.40
2012,06,04,05,09,6.40
2012,06,04,05,10,6.40
2012,06,04,05,11,6.40
2012,06,04,05,12,6.40
2012,06,04,05,13,6.40
2012,06,04,05,14,6.40
2012,06,04,05,15,6.40
2012,06,04,05,16,6.40
2012,06,04,05,17,6.50
2012,06,04,05,18,6.40
2012,06,04,05,19,6.50
2012,06,04,05,20,6.50
2012,06,04,05,21,6.50
2012,06,04,05,22,6.50
2012,06,04,05,23,6.50
2012,06,04,05,24,6.50
2012,06,04,05,25,6.50
2012,06,04,05,26,6.60
2012,06,04,05,27,6.60
2012,06,04,05,28,6.60
2012,06,04,05,29,6.60
2012,06,04,05,30,6.60
2012,06,04,05,31,6.60
2012,06,04,05,32,6.60
2012,06,04,05,33,6.60
2012,06,04,05,34,6.60
2012,06,04,05,35,6.60
2012,06,04,05,36,6.60
2012,06,04,05,37,6.70
2012,06,04,05,38,6.70
2012,06,04,05,39,6.70
2012,06,04,05,40,6.70
2012,06,04,05,41,6.70
2012,06,04,05,42,6.70
2012,06,04,05,43,6.70
2012,06,04,05,44,6.70
2012,06,04,05,45,6.70
2012,06,04,05,46,6.80
2012,06,04,05,47,6.80
2012,06,04,05,48,6.80
2012,06,04,05,49,6.80
2012,06,04,05,50,6.80
2012,06,04,05,51,6.80
2012,06,04,05,52,6.80
2012,06,04,05,53,6.80
2012,06,04,05,54,6.80
2012,06,04,05,55,6.80
2012,06,04,05,56,6.80
2012,06,04,05,57,6.80
2012,06,04,05,58,6.90
2012,06,04,05,59,6.90
2012,06,04,06,00,6.90
2012,06,04,06,01,6.90
2012,06,04,06,02,6.90
2012,06,04,06,03,6.90
2012,06,04,06,04,6.90
2012,06,04,06,05,6.90
2012,06,04,06,06,6.90
2012,06,04,06,07,6.90
2012,06,04,06,08,7.00
2012,06,04,06,09,7.00
2012,06,04,06,10,7.00
2012,06,04,06,11,7.00
2012,06,04,06,12,7.00
2012,06,04,06,13,7.00
2012,06,04,06,14,7.10
2012,06,04,06,15,7.10
2012,06,04,06,16,7.10
2012,06,04,06,17,7.10
2012,06,04,06,18,7.10
2012,06,04,06,19,7.10
2012,06,04,06,20,7.10
2012,06,04,06,21,7.10
2012,06,04,06,22,7.20
2012,06,04,06,23,7.20
2012,06,04,06,24,7.20
2012,06,04,06,25,7.20
2012,06,04,06,26,7.20
2012,06,04,06,27,7.20
2012,06,04,06,28,7.20
2012,06,04,06,29,7.20
2012,06,04,06,30,7.20
2012,06,04,06,31,7.20
2012,06,04,06,32,7.20
2012,06,04,06,33,7.20
2012,06,04,06,34,7.20
2012,06,04,06,35,7.30
2012,06,04,06,36,7.30
2012,06,04,06,37,7.30
2012,06,04,06,38,7.30
2012,06,04,06,39,7.30
2012,06,04,06,40,7.30
2012,06,04,06,41,7.40
2012,06,04,06,42,7.40
2012,06,04,06,43,7.40
2012,06,04,06,44,7.40
2012,06,04,06,45,7.40
2012,06,04,06,46,7.40
2012,06,04,06,47,7.50
2012,06,04,06,48,7.50
2012,06,04,06,49,7.50
2012,06,04,06,50,7.50
2012,06,04,06,51,7.60
2012,06,04,06,52,7.60
2012,06,04,06,53,7.60
2012,06,04,06,54,7.60
2012,06,04,06,55,7.60
2012,06,04,06,56,7.60
2012,06,04,06,57,7.60
2012,06,04,06,58,7.70
2012,06,04,06,59,7.70
2012,06,04,07,00,7.70
2012,06,04,07,01,7.70
2012,06,04,07,02,7.70
2012,06,04,07,03,7.80
2012,06,04,07,04,7.80
2012,06,04,07,05,7.80
2012,06,04,07,06,7.80
2012,06,04,07,07,7.80
2012,06,04,07,08,7.90
2012,06,04,07,09,7.90
2012,06,04,07,10,7.90
2012,06,04,07,11,7.90
2012,06,04,07,12,7.90
2012,06,04,07,13,7.90
2012,06,04,07,14,7.90
2012,06,04,07,15,8.00
2012,06,04,07,16,8.00
2012,06,04,07,17,8.00
2012,06,04,07,18,8.00
2012,06,04,07,19,8.10
2012,06,04,07,20,8.10
2012,06,04,07,21,8.10
2012,06,04,07,22,8.10
2012,06,04,07,23,8.10
2012,06,04,07,24,8.20
2012,06,04,07,25,8.20
2012,06,04,07,26,8.20
2012,06,04,07,27,8.20
2012,06,04,07,28,8.20
2012,06,04,07,29,8.20
2012,06,04,07,30,8.30
2012,06,04,07,31,8.30
2012,06,04,07,32,8.30
2012,06,04,07,33,8.30
2012,06,04,07,34,8.30
2012,06,04,07,35,8.30
2012,06,04,07,36,8.30
2012,06,04,07,37,8.40
2012,06,04,07,38,8.40
2012,06,04,07,39,8.40
2012,06,04,07,40,8.40
2012,06,04,07,41,8.40
2012,06,04,07,42,8.50
2012,06,04,07,43,8.50
2012,06,04,07,44,8.50
2012,06,04,07,45,8.50
2012,06,04,07,46,8.60
2012,06,04,07,47,8.60
2012,06,04,07,48,8.60
2012,06,04,07,49,8.60
2012,06,04,07,50,8.60
2012,06,04,07,51,8.60
2012,06,04,07,52,8.70
2012,06,04,07,53,8.70
2012,06,04,07,54,8.70
2012,06,04,07,55,8.70
2012,06,04,07,56,8.70
2012,06,04,07,57,8.70
2012,06,04,07,58,8.70
2012,06,04,07,59,8.80
2012,06,04,08,00,8.80
2012,06,04,08,01,8.80
2012,06,04,08,02,8.80
2012,06,04,08,03,8.80
2012,06,04,08,04,8.90
2012,06,04,08,05,8.90
2012,06,04,08,06,8.90
2012,06,04,08,07,8.90
2012,06,04,08,08,9.00
2012,06,04,08,09,9.00
2012,06,04,08,10,9.10
2012,06,04,08,11,9.10
2012,06,04,08,12,9.10
2012,06,04,08,13,9.10
2012,06,04,08,14,9.20
2012,06,04,08,15,9.20
2012,06,04,08,16,9.20
2012,06,04,08,17,9.20
2012,06,04,08,18,9.20
2012,06,04,08,19,9.30
2012,06,04,08,20,9.30
2012,06,04,08,21,9.30
2012,06,04,08,22,9.30
2012,06,04,08,23,9.30
2012,06,04,08,24,9.30
2012,06,04,08,25,9.40
2012,06,04,08,26,9.40
2012,06,04,08,27,9.40
2012,06,04,08,28,9.40
2012,06,04,08,29,9.40
2012,06,04,08,30,9.50
2012,06,04,08,31,9.50
2012,06,04,08,32,9.50
2012,06,04,08,33,9.50
2012,06,04,08,34,9.60
2012,06,04,08,35,9.60
2012,06,04,08,36,9.60
2012,06,04,08,37,9.60
2012,06,04,08,38,9.60
2012,06,04,08,39,9.60
2012,06,04,08,40,9.60
2012,06,04,08,41,9.60
2012,06,04,08,42,9.60
2012,06,04,08,43,9.60
2012,06,04,08,44,9.60
2012,06,04,08,45,9.60
2012,06,04,08,46,9.60
2012,06,04,08,47,9.60
2012,06,04,08,48,9.60
2012,06,04,08,49,9.60
2012,06,04,08,50,9.70
2012,06,04,08,51,9.70
2012,06,04,08,52,9.70
2012,06,04,08,53,9.70
2012,06,04,08,54,9.70
2012,06,04,08,55,9.70
2012,06,04,08,56,9.70
2012,06,04,08,57,9.70
2012,06,04,08,58,9.70
2012,06,04,08,59,9.70
2012,06,04,09,00,9.60
2012,06,04,09,01,9.60
2012,06,04,09,02,9.60
2012,06,04,09,03,9.60
2012,06,04,09,04,9.60
2012,06,04,09,05,9.60
2012,06,04,09,06,9.60
2012,06,04,09,07,9.60
2012,06,04,09,08,9.60
2012,06,04,09,09,9.60
2012,06,04,09,10,9.60
2012,06,04,09,11,9.60
2012,06,04,09,12,9.60
2012,06,04,09,13,9.60
2012,06,04,09,14,9.60
2012,06,04,09,15,9.60
2012,06,04,09,16,9.60
2012,06,04,09,17,9.60
2012,06,04,09,18,9.60
2012,06,04,09,19,9.60
2012,06,04,09,20,9.50
2012,06,04,09,21,9.50
2012,06,04,09,22,9.40
2012,06,04,09,23,9.40
2012,06,04,09,24,9.40
2012,06,04,09,25,9.40
2012,06,04,09,26,9.30
2012,06,04,09,27,9.30
2012,06,04,09,28,9.30
2012,06,04,09,29,9.30
2012,06,04,09,30,9.40
2012,06,04,09,31,9.40
2012,06,04,09,32,9.40
2012,06,04,09,33,9.40
2012,06,04,09,34,9.40
2012,06,04,09,35,9.40
2012,06,04,09,36,9.40
2012,06,04,09,37,9.40
2012,06,04,09,38,9.40
2012,06,04,09,39,9.40
2012,06,04,09,40,9.40
2012,06,04,09,41,9.40
2012,06,04,09,42,9.40
2012,06,04,09,43,9.40
2012,06,04,09,44,9.40
2012,06,04,09,45,9.40
2012,06,04,09,46,9.40
2012,06,04,09,47,9.30
2012,06,04,09,48,9.30
2012,06,04,09,49,9.30
2012,06,04,09,50,9.30
2012,06,04,09,51,9.30
2012,06,04,09,52,9.30
2012,06,04,09,53,9.30
2012,06,04,09,54,9.30
2012,06,04,09,55,9.30
2012,06,04,09,56,9.30
2012,06,04,09,57,9.40
2012,06,04,09,58,9.40
2012,06,04,09,59,9.40
2012,06,04,10,00,9.40
2012,06,04,10,01,9.40
2012,06,04,10,02,9.40
2012,06,04,10,03,9.50
2012,06,04,10,04,9.50
2012,06,04,10,05,9.50
2012,06,04,10,06,9.60
2012,06,04,10,07,9.60
2012,06,04,10,08,9.60
2012,06,04,10,09,9.60
2012,06,04,10,10,9.60
2012,06,04,10,11,9.70
2012,06,04,10,12,9.70
2012,06,04,10,13,9.70
2012,06,04,10,14,9.70
2012,06,04,10,15,9.70
2012,06,04,10,16,9.70
2012,06,04,10,17,9.70
2012,06,04,10,18,9.70
2012,06,04,10,19,9.70
2012,06,04,10,20,9.70
2012,06,04,10,21,9.70
2012,06,04,10,22,9.70
2012,06,04,10,23,9.70
2012,06,04,10,24,9.80
2012,06,04,10,25,9.80
2012,06,04,10,26,9.80
2012,06,04,10,27,9.80
2012,06,04,10,28,9.80
2012,06,04,10,29,9.80
2012,06,04,10,30,9.80
2012,06,04,10,31,9.80
2012,06,04,10,32,9.80
2012,06,04,10,33,9.80
2012,06,04,10,34,9.80
2012,06,04,10,35,9.80
2012,06,04,10,36,9.80
2012,06,04,10,37,9.90
2012,06,04,10,38,9.90
2012,06,04,10,39,9.90
2012,06,04,10,40,9.90
2012,06,04,10,41,10.00
2012,06,04,10,42,10.00
2012,06,04,10,43,10.00
2012,06,04,10,44,10.10
2012,06,04,10,45,10.10
2012,06,04,10,46,10.10
2012,06,04,10,47,10.10
2012,06,04,10,48,10.10
2012,06,04,10,49,10.10
2012,06,04,10,50,10.20
2012,06,04,10,51,10.20
2012,06,04,10,52,10.20
2012,06,04,10,53,10.20
2012,06,04,10,54,10.20
2012,06,04,10,55,10.20
2012,06,04,10,56,10.20
2012,06,04,10,57,10.30
2012,06,04,10,58,10.30
2012,06,04,10,59,10.30
2012,06,04,11,00,10.30
2012,06,04,11,01,10.30
2012,06,04,11,02,10.30
2012,06,04,11,03,10.30
2012,06,04,11,04,10.40
2012,06,04,11,05,10.40
2012,06,04,11,06,10.40
2012,06,04,11,07,10.40
2012,06,04,11,08,10.40
2012,06,04,11,09,10.40
2012,06,04,11,10,10.40
2012,06,04,11,11,10.40
2012,06,04,11,12,10.40
2012,06,04,11,13,10.40
2012,06,04,11,14,10.40
2012,06,04,11,15,10.40
2012,06,04,11,16,10.40
2012,06,04,11,17,10.40
2012,06,04,11,18,10.40
2012,06,04,11,19,10.40
2012,06,04,11,20,10.40
2012,06,04,11,21,10.40
2012,06,04,11,22,10.40
2012,06,04,11,23,10.40
2012,06,04,11,24,10.40
2012,06,04,11,25,10.40
2012,06,04,11,26,10.50
2012,06,04,11,27,10.50
2012,06,04,11,28,10.50
2012,06,04,11,29,10.50
2012,06,04,11,30,10.50
2012,06,04,11,31,10.50
2012,06,04,11,32,10.60
2012,06,04,11,33,10.60
2012,06,04,11,34,10.60
2012,06,04,11,35,10.60
2012,06,04,11,36,10.70
2012,06,04,11,37,10.70
2012,06,04,11,38,10.70
2012,06,04,11,39,10.70
2012,06,04,11,40,10.70
2012,06,04,11,41,10.70
2012,06,04,11,42,10.80
2012,06,04,11,43,10.80
2012,06,04,11,44,10.80
2012,06,04,11,45,10.80
2012,06,04,11,46,10.80
2012,06,04,11,47,10.80
2012,06,04,11,48,10.80
2012,06,04,11,49,10.80
2012,06,04,11,50,10.80
2012,06,04,11,51,10.80
2012,06,04,11,52,10.80
2012,06,04,11,53,10.80
2012,06,04,11,54,10.80
2012,06,04,11,55,10.90
2012,06,04,11,56,10.90
2012,06,04,11,57,10.90
2012,06,04,11,58,10.90
2012,06,04,11,59,10.90
2012,06,04,12,00,10.90
2012,06,04,12,01,10.80
2012,06,04,12,02,10.80
2012,06,04,12,03,10.80
2012,06,04,12,04,10.80
2012,06,04,12,05,10.80
2012,06,04,12,06,10.80
2012,06,04,12,07,10.80
2012,06,04,12,08,10.80
2012,06,04,12,09,10.90
2012,06,04,12,10,10.90
2012,06,04,12,11,10.90
2012,06,04,12,12,10.90
2012,06,04,12,13,10.90
2012,06,04,12,14,10.90
2012,06,04,12,15,10.90
2012,06,04,12,16,11.00
2012,06,04,12,17,11.00
2012,06,04,12,18,11.00
2012,06,04,12,19,11.00
2012,06,04,12,20,11.10
2012,06,04,12,21,11.10
2012,06,04,12,22,11.10
2012,06,04,12,23,11.10
2012,06,04,12,24,11.10
2012,06,04,12,25,11.10
2012,06,04,12,26,11.10
2012,06,04,12,27,11.10
2012,06,04,12,28,11.20
2012,06,04,12,29,11.20
2012,06,04,12,30,11.20
2012,06,04,12,31,11.20
2012,06,04,12,32,11.20
2012,06,04,12,33,11.20
2012,06,04,12,34,11.20
2012,06,04,12,35,11.30
2012,06,04,12,36,11.30
2012,06,04,12,37,11.30
2012,06,04,12,38,11.30
2012,06,04,12,39,11.40
2012,06,04,12,40,11.40
2012,06,04,12,41,11.40
2012,06,04,12,42,11.40
2012,06,04,12,43,11.50
2012,06,04,12,44,11.50
2012,06,04,12,45,11.60
2012,06,04,12,46,11.60
2012,06,04,12,47,11.60
2012,06,04,12,48,11.60
2012,06,04,12,49,11.60
2012,06,04,12,50,11.50
2012,06,04,12,51,11.60
2012,06,04,12,52,11.60
2012,06,04,12,53,11.60
2012,06,04,12,54,11.60
2012,06,04,12,55,11.50
2012,06,04,12,56,11.50
2012,06,04,12,57,11.50
2012,06,04,12,58,11.50
2012,06,04,12,59,11.50
2012,06,04,13,00,11.50
2012,06,04,13,01,11.50
2012,06,04,13,02,11.50
2012,06,04,13,03,11.60
2012,06,04,13,04,11.60
2012,06,04,13,05,11.60
2012,06,04,13,06,11.60
2012,06,04,13,07,11.60
2012,06,04,13,08,11.60
2012,06,04,13,09,11.60
2012,06,04,13,10,11.60
2012,06,04,13,11,11.60
2012,06,04,13,12,11.60
2012,06,04,13,13,11.60
2012,06,04,13,14,11.60
2012,06,04,13,15,11.60
2012,06,04,13,16,11.60
2012,06,04,13,17,11.60
2012,06,04,13,18,11.60
2012,06,04,13,19,11.50
2012,06,04,13,20,11.50
2012,06,04,13,21,11.50
2012,06,04,13,22,11.50
2012,06,04,13,23,11.50
2012,06,04,13,24,11.50
2012,06,04,13,25,11.50
2012,06,04,13,26,11.50
2012,06,04,13,27,11.50
2012,06,04,13,28,11.50
2012,06,04,13,29,11.50
2012,06,04,13,30,11.50
2012,06,04,13,31,11.50
2012,06,04,13,32,11.50
2012,06,04,13,33,11.50
2012,06,04,13,34,11.60
2012,06,04,13,35,11.60
2012,06,04,13,36,11.60
2012,06,04,13,37,11.60
2012,06,04,13,38,11.60
2012,06,04,13,39,11.60
2012,06,04,13,40,11.60
2012,06,04,13,41,11.60
2012,06,04,13,42,11.60
2012,06,04,13,43,11.60
2012,06,04,13,44,11.60
2012,06,04,13,45,11.60
2012,06,04,13,46,11.70
2012,06,04,13,47,11.70
2012,06,04,13,48,11.70
2012,06,04,13,49,11.70
2012,06,04,13,50,11.70
2012,06,04,13,51,11.70
2012,06,04,13,52,11.70
2012,06,04,13,53,11.70
2012,06,04,13,54,11.70
2012,06,04,13,55,11.70
2012,06,04,13,56,11.70
2012,06,04,13,57,11.70
2012,06,04,13,58,11.60
2012,06,04,13,59,11.60
2012,06,04,14,00,11.60
2012,06,04,14,01,11.60
2012,06,04,14,02,11.60
2012,06,04,14,03,11.60
2012,06,04,14,04,11.60
2012,06,04,14,05,11.60
2012,06,04,14,06,11.60
2012,06,04,14,07,11.60
2012,06,04,14,08,11.70
2012,06,04,14,09,11.70
2012,06,04,14,10,11.70
2012,06,04,14,11,11.70
2012,06,04,14,12,11.70
2012,06,04,14,13,11.70
2012,06,04,14,14,11.70
2012,06,04,14,15,11.70
2012,06,04,14,16,11.70
2012,06,04,14,17,11.80
2012,06,04,14,18,11.80
2012,06,04,14,19,11.80
2012,06,04,14,20,11.80
2012,06,04,14,21,11.80
2012,06,04,14,22,11.80
2012,06,04,14,23,11.90
2012,06,04,14,24,11.90
2012,06,04,14,25,11.90
2012,06,04,14,26,11.90
2012,06,04,14,27,11.90
2012,06,04,14,28,11.90
2012,06,04,14,29,11.90
2012,06,04,14,30,11.90
2012,06,04,14,31,11.90
2012,06,04,14,32,12.00
2012,06,04,14,33,12.00
2012,06,04,14,34,12.00
2012,06,04,14,35,12.10
2012,06,04,14,36,12.10
2012,06,04,14,37,12.10
2012,06,04,14,38,12.10
2012,06,04,14,39,12.20
2012,06,04,14,40,12.20
2012,06,04,14,41,12.20
2012,06,04,14,42,12.20
2012,06,04,14,43,12.20
2012,06,04,14,44,12.20
2012,06,04,14,45,12.20
2012,06,04,14,46,12.20
2012,06,04,14,47,12.20
2012,06,04,14,48,12.20
2012,06,04,14,49,12.10
2012,06,04,14,50,12.10
2012,06,04,14,51,12.10
2012,06,04,14,52,12.10
2012,06,04,14,53,12.10
2012,06,04,14,54,12.20
2012,06,04,14,55,12.20
2012,06,04,14,56,12.20
2012,06,04,14,57,12.20
2012,06,04,14,58,12.20
2012,06,04,14,59,12.20
2012,06,04,15,00,12.20
2012,06,04,15,01,12.20
2012,06,04,15,02,12.20
2012,06,04,15,03,12.20
2012,06,04,15,04,12.20
2012,06,04,15,05,12.20
2012,06,04,15,06,12.20
2012,06,04,15,07,12.20
2012,06,04,15,08,12.20
2012,06,04,15,09,12.20
2012,06,04,15,10,12.20
2012,06,04,15,11,12.20
2012,06,04,15,12,12.20
2012,06,04,15,13,12.20
2012,06,04,15,14,12.20
2012,06,04,15,15,12.20
2012,06,04,15,16,12.20
2012,06,04,15,17,12.20
2012,06,04,15,18,12.30
2012,06,04,15,19,12.30
2012,06,04,15,20,12.30
2012,06,04,15,21,12.30
2012,06,04,15,22,12.30
2012,06,04,15,23,12.30
2012,06,04,15,24,12.30
2012,06,04,15,25,12.30
2012,06,04,15,26,12.30
2012,06,04,15,27,12.30
2012,06,04,15,28,12.30
2012,06,04,15,29,12.30
2012,06,04,15,30,12.30
2012,06,04,15,31,12.30
2012,06,04,15,32,12.30
2012,06,04,15,33,12.30
2012,06,04,15,34,12.30
2012,06,04,15,35,12.30
2012,06,04,15,36,12.30
2012,06,04,15,37,12.30
2012,06,04,15,38,12.40
2012,06,04,15,39,12.40
2012,06,04,15,40,12.40
2012,06,04,15,41,12.40
2012,06,04,15,42,12.50
2012,06,04,15,43,12.50
2012,06,04,15,44,12.50
2012,06,04,15,45,12.60
2012,06,04,15,46,12.60
2012,06,04,15,47,12.60
2012,06,04,15,48,12.60
2012,06,04,15,49,12.60
2012,06,04,15,50,12.60
2012,06,04,15,51,12.60
2012,06,04,15,52,12.60
2012,06,04,15,53,12.60
2012,06,04,15,54,12.60
2012,06,04,15,55,12.60
2012,06,04,15,56,12.60
2012,06,04,15,57,12.60
2012,06,04,15,58,12.60
2012,06,04,15,59,12.60
2012,06,04,16,00,12.60
2012,06,04,16,01,12.60
2012,06,04,16,02,12.70
2012,06,04,16,03,12.70
2012,06,04,16,04,12.70
2012,06,04,16,05,12.70
2012,06,04,16,06,12.70
2012,06,04,16,07,12.70
2012,06,04,16,08,12.70
2012,06,04,16,09,12.80
2012,06,04,16,10,12.80
2012,06,04,16,11,12.80
2012,06,04,16,12,12.80
2012,06,04,16,13,12.80
2012,06,04,16,14,12.80
2012,06,04,16,15,12.80
2012,06,04,16,16,12.80
2012,06,04,16,17,12.80
2012,06,04,16,18,12.90
2012,06,04,16,19,12.90
2012,06,04,16,20,12.90
2012,06,04,16,21,12.90
2012,06,04,16,22,12.90
2012,06,04,16,23,12.90
2012,06,04,16,24,12.90
2012,06,04,16,25,12.90
2012,06,04,16,26,12.90
2012,06,04,16,27,12.90
2012,06,04,16,28,12.90
2012,06,04,16,29,12.90
2012,06,04,16,30,12.90
2012,06,04,16,31,12.90
2012,06,04,16,32,12.90
2012,06,04,16,33,12.90
2012,06,04,16,34,12.90
2012,06,04,16,35,12.90
2012,06,04,16,36,13.00
2012,06,04,16,37,13.00
2012,06,04,16,38,13.00
2012,06,04,16,39,12.90
2012,06,04,16,40,12.90
2012,06,04,16,41,12.90
2012,06,04,16,42,12.90
2012,06,04,16,43,12.90
2012,06,04,16,44,12.90
2012,06,04,16,45,12.90
2012,06,04,16,46,12.90
2012,06,04,16,47,12.90
2012,06,04,16,48,12.80
2012,06,04,16,49,12.80
2012,06,04,16,50,12.80
2012,06,04,16,51,12.80
2012,06,04,16,52,12.80
2012,06,04,16,53,12.80
2012,06,04,16,54,12.80
2012,06,04,16,55,12.70
2012,06,04,16,56,12.70
2012,06,04,16,57,12.70
2012,06,04,16,58,12.70
2012,06,04,16,59,12.70
2012,06,04,17,00,12.70
2012,06,04,17,01,12.70
2012,06,04,17,02,12.70
2012,06,04,17,03,12.70
2012,06,04,17,04,12.70
2012,06,04,17,05,12.70
2012,06,04,17,06,12.70
2012,06,04,17,07,12.70
2012,06,04,17,08,12.60
2012,06,04,17,09,12.60
2012,06,04,17,10,12.60
2012,06,04,17,11,12.60
2012,06,04,17,12,12.60
2012,06,04,17,13,12.60
2012,06,04,17,14,12.60
2012,06,04,17,15,12.60
2012,06,04,17,16,12.60
2012,06,04,17,17,12.60
2012,06,04,17,18,12.60
2012,06,04,17,19,12.60
2012,06,04,17,20,12.60
2012,06,04,17,21,12.60
2012,06,04,17,22,12.60
2012,06,04,17,23,12.50
2012,06,04,17,24,12.50
2012,06,04,17,25,12.50
2012,06,04,17,26,12.50
2012,06,04,17,27,12.50
2012,06,04,17,28,12.50
2012,06,04,17,29,12.40
2012,06,04,17,30,12.40
2012,06,04,17,31,12.40
2012,06,04,17,32,12.40
2012,06,04,17,33,12.40
2012,06,04,17,34,12.40
2012,06,04,17,35,12.40
2012,06,04,17,36,12.40
2012,06,04,17,37,12.40
2012,06,04,17,38,12.40
2012,06,04,17,39,12.30
2012,06,04,17,40,12.30
2012,06,04,17,41,12.30
2012,06,04,17,42,12.30
2012,06,04,17,43,12.30
2012,06,04,17,44,12.30
2012,06,04,17,45,12.30
2012,06,04,17,46,12.30
2012,06,04,17,47,12.30
2012,06,04,17,48,12.30
2012,06,04,17,49,12.30
2012,06,04,17,50,12.30